Home > Weather > Rohrbach > Past weeks

Flag for Austria Weather for the Past 2 Weeks in Rohrbach, Upper Austria, Austria

Now
53 °F

Cool.


Feels Like: 52 °F
Forecast: 39 / 46 °F
Wind: 3 mph from Northwest

Location: Rohrbach

Current Time: May 4, 2016 at 12:20:10 AM

Latest Report: May 3, 2016 at 10:00 PM


Visibility: N/A

Pressure: 30.03 "Hg (27.93 "Hg at 605m altitude)

Humidity: 65%

Dew Point: 41 °F

Location of RohrbachLocation

Historic Weather in Rohrbach — Graph

°F

Rohrbach Temperature Yesterday

Maximum temperature yesterday: 64 °F (at 4:00 PM)
Minimum temperature yesterday: 40 °F (at 7:00 AM)
Average temperature yesterday: 54 °F

High & Low Weather Summary for the Past Weeks

 TemperatureHumidityPressure
High65 °F (Apr 30, 4:00 PM)99% (May 3, 6:00 AM)30.38 "Hg (May 3, 6:00 AM)
Low28 °F (Apr 28, 6:00 AM)31% (Apr 30, 4:00 PM)29.62 "Hg (Apr 23, 7:00 PM)
Average47 °F67%29.99 "Hg
* Reported Apr 18 10:00 PM — May 3 10:00 PM, Rohrbach, Weather by CustomWeather, © 2016

Note: Actual official high and low records may vary slightly from our data, if they occured in-between our weather recording intervals... More about our weather records

Advertising

Rohrbach Weather History for the Previous 24 Hours

Scroll right to see more
 ConditionsComfort  
Time TempWeatherWind HumidityBarometerVisibility
10:00 PM
Tue, May 3
53 °FCool.3 mph65%30.03 "HgN/A
9:00 PM54 °FCool.2 mph61%30.00 "HgN/A
8:00 PM58 °FRefreshingly cool.2 mph46%29.97 "HgN/A
7:00 PM60 °FRefreshingly cool.3 mph38%29.93 "HgN/A
6:00 PM61 °FRefreshingly cool.3 mph40%29.91 "HgN/A
5:00 PM63 °FMild.6 mph37%29.90 "HgN/A
4:00 PM64 °FMild.6 mph38%29.90 "HgN/A
3:00 PM63 °FMild.3 mph41%29.91 "HgN/A
2:00 PM60 °FRefreshingly cool.3 mph51%29.93 "HgN/A
1:00 PM60 °FRefreshingly cool.6 mph47%29.96 "HgN/A
12:00 PM58 °FRefreshingly cool.5 mph55%29.98 "HgN/A
11:00 AM57 °FCool.1 mph68%30.01 "HgN/A
10:00 AM53 °FCool.1 mph76%30.03 "HgN/A
9:00 AM48 °FCool.1 mph84%30.06 "HgN/A
8:00 AM44 °FQuite cool.1 mph96%30.08 "HgN/A
7:00 AM40 °FQuite cool.1 mph99%30.09 "HgN/A
6:00 AM41 °FQuite cool.No wind99%30.09 "HgN/A
2:00 AM47 °FCool.No wind94%30.09 "HgN/A
1:00 AM48 °FCool.1 mph96%30.09 "HgN/A
Weather by CustomWeather, © 2016

See weather overviewHow to use our weather pages